sat.trackr.live / text

‹ back to catalog

STARLINK-32288

NORAD 60943 · 2024-155V

PAYLOAD ACTIVE UNKNOWN

§ Identity

Operator
Country
US
Launch date
2024-08-31
Launch site
AFWTR
Launch vehicle
Mass (kg)
RCS (m²)

Purposes: comms

External: N2YO · Heavens-Above · Gunter

§ Orbital elements

Epoch: 2026-05-25T04:00:03.998880Z

Period
93.85 min
Inclination
53.1584°
Eccentricity
0.0002048
Mean motion
15.34385666 rev/d
Perigee alt
461.3 km
Apogee alt
464.1 km
Semi-major
6,840.9 km
B*
-2.9605e-4
RAAN
134.6089°
Arg perigee
70.6373°
Mean anomaly
66.0703°
Rev number
590

§ Raw data

STARLINK-322881 60943U 24155V   26145.16671295 -.00010362  00000+0 -29605-3 0  99922 60943  53.1584 134.6089 0002048  70.6373  66.0703 15.34385666  5904

JSON: /api/v1/satellites/60943 · /tle

For live sub-satellite position, see the globe view (requires WebGL).

§ Visibility from observer

Set your observer location to see the next 7 days of passes ≥ 10°. The values pass through the URL so the page stays shareable.

No JS? Fill the form by hand. The geolocation button needs JavaScript.